7 * 24
多渠道服务支持
ORBCOMM FM 2卫星于1995年4月3日由ORB发射,属于ORBCOMM星座系列,是全球早期低轨卫星通信网络的组成部分。该卫星主要用于提供全球范围的 machine-to-machine(M2M)数据通信服务,支持船舶跟踪、远程设备监控等应用。作为ORBCOMM早期组网卫星之一,它推动了低轨卫星通信商业化发展,为后续星座扩展奠定技术基础。
(ORB)
| 数据来源 | 国际轨道数据 |
| 星历时间: | 2026-09-11T02:33:34+0800 16小时前 查看轨道信息 |
| 半长轴: | 6946.652km |
| 偏心率: | 0.0005386 |
| 轨道倾角: | 69.962° |
| 近地点辐角 | 328.454° |
| 升交点赤经 | 40.463° |
| 平近点角 | 31.630° |
| 近地点: | 564.773km |
| 远地点: | 572.257km |
| 周期: | 96.034分钟 |
| 每日圈数: | 14.994758 |